GW3067 Weather Reports


Display with metric or nautical units.
time (UTC)temp
F
wind
direction
speed
MPH
gust
MPH
rain 1hr
in
rain 24hr
in
rain mn
in
humidity
%
barometer
mb
20260502224549 68 279 1.0 8.0 0.00 0.00 0.00 25 1016.0
20260502223048 68 272 4.0 11.0 0.00 0.00 0.00 28 1016.2
20260502221548 67 253 6.0 12.0 0.00 0.00 0.00 24 1016.4
20260502220048 67 53 4.0 10.0 0.00 0.00 0.00 27 1016.6
20260502214548 68 293 5.0 13.0 0.00 0.00 0.00 27 1017.0
20260502213102 67 272 3.0 13.0 0.00 0.00 0.00 26 1017.0
20260502211551 68 305 5.0 14.0 0.00 0.00 0.00 26 1017.0
20260502210052 67 191 3.0 9.0 0.00 0.00 0.00 28 1017.2
20260502204547 66 0 4.0 10.0 0.00 0.00 0.00 31 1017.4
20260502203052 66 273 4.0 17.0 0.00 0.00 0.00 26 1017.6
20260502201550 66 240 8.0 16.0 0.00 0.00 0.00 31 1017.7
20260502200107 65 336 5.0 11.0 0.00 0.00 0.00 31 1017.7
20260502194604 65 13 6.0 13.0 0.00 0.00 0.00 32 1018.0
20260502193050 64 26 2.0 9.0 0.00 0.00 0.00 34 1018.2
20260502191556 63 316 2.0 9.0 0.00 0.00 0.00 37 1018.5
20260502190047 63 276 2.0 8.0 0.00 0.00 0.00 38 1018.7
20260502184550 61 352 4.0 10.0 0.00 0.00 0.00 41 1018.8
20260502183049 61 346 4.0 10.0 0.00 0.00 0.00 43 1018.9
20260502181549 60 13 5.0 12.0 0.00 0.00 0.00 43 1019.0
20260502163052 56 49 3.0 10.0 0.00 0.00 0.00 50 1019.5
20260502161550 53 316 3.0 6.0 0.00 0.00 0.00 58 1019.6
20260502151601 46 325 2.0 5.0 0.00 0.00 0.00 64 1020.1
20260502150124 43 249 3.0 5.0 0.00 0.00 0.00 70 1020.2
20260502130105 32 171 2.0 4.0 0.00 0.00 0.00 88 1020.4
20260502123051 33 171 1.0 4.0 0.00 0.00 0.00 85 1020.1
20260502121602 32 0 0.0 0.0 0.00 0.00 0.00 86 1020.0
20260502120113 33 0 0.0 3.0 0.00 0.00 0.00 84 1019.9
20260502114556 33 171 0.0 2.0 0.00 0.00 0.00 83 1019.8
20260502113109 34 0 0.0 2.0 0.00 0.00 0.00 83 1019.8
20260502111555 34 0 0.0 2.0 0.00 0.00 0.00 81 1019.5
20260502110053 34 0 0.0 4.0 0.00 0.00 0.00 81 1019.5
20260502104550 34 0 0.0 0.0 0.00 0.00 0.00 80 1019.2
20260502103112 35 0 0.0 2.0 0.00 0.00 0.00 78 1019.1
20260502101553 35 171 1.0 2.0 0.00 0.00 0.00 77 1018.9
20260502070059 40 173 1.0 5.0 0.00 0.00 0.00 65 1018.8
20260502064547 41 173 1.0 5.0 0.00 0.00 0.00 63 1018.6
20260502063055 41 173 1.0 6.0 0.00 0.00 0.00 61 1018.6
20260502061551 41 173 3.0 5.0 0.00 0.00 0.00 62 1018.6
20260502054607 44 150 2.0 7.0 0.00 0.00 0.00 55 1018.3
20260502053051 44 160 3.0 9.0 0.00 0.00 0.00 54 1018.3
20260502051554 45 176 4.0 9.0 0.00 0.00 0.00 52 1018.2
20260502050054 46 163 5.0 14.0 0.00 0.00 0.00 50 1018.2
20260502044549 47 164 6.0 12.0 0.00 0.00 0.00 49 1018.2
20260502043057 47 180 5.0 11.0 0.00 0.00 0.00 48 1018.3
20260502041553 47 178 3.0 9.0 0.00 0.00 0.00 49 1018.3
20260502040052 49 145 5.0 10.0 0.00 0.00 0.00 46 1018.2
20260502034551 50 177 5.0 9.0 0.00 0.00 0.00 46 1018.2
20260502033048 50 176 4.0 10.0 0.00 0.00 0.00 44 1018.0
20260502031551 51 158 5.0 9.0 0.00 0.00 0.00 44 1017.9
20260502030103 52 159 5.0 8.0 0.00 0.00 0.00 42 1017.7
20260502024547 53 177 3.0 7.0 0.00 0.00 0.00 40 1017.5
20260502023057 54 178 4.0 7.0 0.00 0.00 0.00 38 1017.5
20260502021548 59 156 3.0 6.0 0.00 0.00 0.00 31 1017.4
20260502020051 63 223 1.0 5.0 0.00 0.00 0.00 27 1017.4
20260502014551 65 254 0.0 9.0 0.00 0.00 0.00 26 1017.5
20260502013056 67 0 1.0 6.0 0.00 0.00 0.00 21 1017.2
20260502011549 67 274 2.0 7.0 0.00 0.00 0.00 22 1017.2
20260502010056 67 345 2.0 8.0 0.00 0.00 0.00 18 1017.2
20260502004546 67 296 6.0 11.0 0.00 0.00 0.00 19 1017.3
20260502003049 67 313 4.0 10.0 0.00 0.00 0.00 19 1017.4
20260502001549 68 244 2.0 8.0 0.00 0.00 0.00 19 1017.4
20260502000050 67 332 5.0 13.0 0.00 0.00 0.00 19 1017.5
20260501234551 68 248 3.0 8.0 0.00 0.00 0.00 21 1017.5
20260501233054 68 236 3.0 12.0 0.00 0.00 0.00 23 1017.6
20260501231545 68 336 5.0 11.0 0.00 0.00 0.00 23 1017.7
20260501230046 68 331 2.0 11.0 0.00 0.00 0.00 25 1017.8